This is the latest recevied weather packets stored in our database for station/object KH6DH-13. If no packets are shown the sender has not sent any weather packets the latest 10 day(s).
| Time | Temp. | Humidity | Pressure | Rain* | Wind** | Luminosity | Snow |
|---|---|---|---|---|---|---|---|
| 1777866898 | 27.22° C | - | - | 0 mm | 1.34 m/s, 39° | - | - |
| 1777866297 | 28.33° C | - | - | 0 mm | 1.79 m/s, 343° | - | - |
| 1777865696 | 31.11° C | - | - | 0 mm | 2.68 m/s, 58° | - | - |
| 1777865095 | 31.11° C | - | - | 0 mm | 2.68 m/s, 359° | - | - |
| 1777864494 | 29.44° C | - | - | 0 mm | 1.34 m/s, 60° | - | - |
| 1777863893 | 29.44° C | - | - | 0 mm | 1.79 m/s, 73° | - | - |
| 1777863292 | 30° C | - | - | 0 mm | 1.79 m/s, 55° | - | - |
| 1777862691 | 30° C | - | - | 0 mm | 1.79 m/s, 339° | - | - |
| 1777862090 | 29.44° C | - | - | 0 mm | 1.79 m/s, 35° | - | - |
| 1777861489 | 30.56° C | - | - | 0 mm | 2.24 m/s, 107° | - | - |
| 1777860888 | 28.89° C | - | - | 0 mm | 1.79 m/s, 66° | - | - |
| 1777860287 | 29.44° C | - | - | 0 mm | 1.34 m/s, 94° | - | - |
| 1777859686 | 28.89° C | - | - | 0 mm | 2.68 m/s, 82° | - | - |
| 1777859085 | 28.89° C | - | - | 0 mm | 2.24 m/s, 356° | - | - |
| 1777858484 | 28.89° C | - | - | 0 mm | 0.89 m/s, 152° | - | - |
| 1777857883 | 28.89° C | - | - | 0 mm | 2.24 m/s, 28° | - | - |
| 1777857282 | 30° C | - | - | 0 mm | 2.68 m/s, 46° | - | - |
| 1777856681 | 30° C | - | - | 0 mm | 4.02 m/s, 93° | - | - |
| 1777856080 | 28.89° C | - | - | 0 mm | 3.13 m/s, 56° | - | - |
| 1777855479 | 28.89° C | - | - | 0 mm | 2.68 m/s, 53° | - | - |
| 1777854878 | 28.89° C | - | - | 0 mm | 3.13 m/s, 14° | - | - |
| 1777854277 | 28.89° C | - | - | 0 mm | 3.58 m/s, 107° | - | - |
| 1777853676 | 28.89° C | - | - | 0 mm | 1.34 m/s, 63° | - | - |
| 1777853075 | 28.89° C | - | - | 0 mm | 1.79 m/s, 79° | - | - |
| 1777852474 | 28.89° C | - | - | 0 mm | 1.79 m/s, 91° | - | - |
* Rain latest hour (hover to see other rain measurements)
** Current wind speed in m/s (hover to see current wind gust speed)